EI4HQ Weather Reports


Display with metric or nautical units.
time (UTC)temp
F
wind
direction
speed
MPH
gust
MPH
rain 1hr
in
rain 24hr
in
rain mn
in
humidity
%
barometer
mb
20260904181803 62 281 6.0 16.0 0.00 0.23 0.05 61 1019.8
20260904180903 62 292 5.0 16.0 0.00 0.23 0.05 59 1019.6
20260904180003 62 306 5.0 16.0 0.00 0.23 0.05 59 1019.6
20260904175403 63 305 4.0 12.0 0.00 0.23 0.05 59 1019.5
20260904174503 63 298 4.0 12.0 0.00 0.23 0.05 58 1019.4
20260904173603 64 291 5.0 15.0 0.00 0.23 0.05 58 1019.3
20260904172703 64 278 4.0 12.0 0.00 0.23 0.05 61 1019.2
20260904171803 64 272 5.0 13.0 0.00 0.23 0.05 62 1019.2
20260904170903 65 280 4.0 10.0 0.00 0.23 0.05 61 1019.1
20260904170003 65 277 5.0 14.0 0.00 0.23 0.05 59 1019.0
20260904165403 65 271 5.0 13.0 0.00 0.23 0.05 62 1018.9
20260904164503 65 272 6.0 15.0 0.00 0.23 0.05 61 1018.7
20260904163603 65 280 6.0 14.0 0.00 0.23 0.05 60 1018.5
20260904162703 65 269 5.0 12.0 0.00 0.23 0.05 62 1018.5
20260904161803 65 273 6.0 13.0 0.00 0.23 0.05 63 1018.5
20260904160903 65 283 4.0 11.0 0.00 0.23 0.05 62 1018.5
20260904160003 65 272 6.0 14.0 0.00 0.23 0.05 65 1018.4
20260904155403 65 267 7.0 15.0 0.00 0.23 0.05 64 1018.2
20260904154503 65 267 5.0 12.0 0.00 0.23 0.05 63 1018.2
20260904153603 65 263 5.0 16.0 0.00 0.23 0.05 64 1018.2
20260904152703 65 272 4.0 13.0 0.00 0.23 0.05 65 1018.3
20260904151803 65 264 6.0 13.0 0.00 0.23 0.05 65 1018.3
20260904150903 65 266 4.0 10.0 0.00 0.23 0.05 66 1018.2
20260904150003 65 270 5.0 13.0 0.00 0.23 0.05 66 1018.3
20260904145403 65 276 4.0 13.0 0.00 0.23 0.05 66 1018.2
20260904144503 65 268 5.0 11.0 0.00 0.23 0.05 64 1018.2
20260904143603 65 272 6.0 14.0 0.00 0.23 0.05 65 1018.0
20260904142703 64 284 4.0 10.0 0.00 0.23 0.05 69 1017.8
20260904141803 63 294 4.0 13.0 0.00 0.23 0.05 67 1017.8
20260904140903 63 279 4.0 13.0 0.00 0.23 0.05 68 1017.8
20260904140003 63 272 4.0 10.0 0.00 0.23 0.05 70 1018.0
20260904135403 63 277 5.0 11.0 0.00 0.23 0.05 70 1018.0
20260904134503 62 276 4.0 12.0 0.00 0.23 0.05 69 1017.9
20260904133603 62 276 4.0 10.0 0.00 0.23 0.05 69 1017.7
20260904132703 62 276 4.0 10.0 0.00 0.23 0.05 69 1017.7
20260904131803 62 275 5.0 15.0 0.00 0.23 0.05 68 1017.7
20260904130903 62 293 4.0 10.0 0.00 0.23 0.05 67 1017.7
20260904130003 62 286 3.0 11.0 0.00 0.23 0.05 67 1017.7
20260904125403 62 286 3.0 10.0 0.00 0.23 0.05 68 1017.5
20260904124503 62 279 5.0 14.0 0.00 0.23 0.05 68 1017.5
20260904123603 62 270 4.0 15.0 0.00 0.23 0.05 68 1017.4
20260904122703 62 277 4.0 10.0 0.00 0.23 0.05 68 1017.2
20260904121803 63 286 4.0 10.0 0.00 0.23 0.05 68 1017.0
20260904120903 62 284 4.0 10.0 0.00 0.23 0.05 68 1017.0
20260904120003 62 287 5.0 13.0 0.00 0.23 0.05 68 1017.0
20260904115403 63 286 4.0 12.0 0.00 0.23 0.05 70 1016.9
20260904114503 62 278 5.0 12.0 0.00 0.23 0.05 72 1016.9
20260904113603 62 274 5.0 16.0 0.00 0.23 0.05 72 1016.8
20260904112703 62 275 5.0 12.0 0.00 0.23 0.05 73 1016.8
20260904111803 62 266 5.0 12.0 0.00 0.23 0.05 75 1016.8
20260904110903 62 270 4.0 13.0 0.00 0.23 0.05 76 1016.9
20260904110003 61 270 5.0 11.0 0.00 0.23 0.05 76 1016.6
20260904105403 61 272 4.0 12.0 0.00 0.23 0.05 76 1016.6
20260904104503 61 278 4.0 11.0 0.00 0.23 0.05 76 1016.5
20260904103603 61 281 5.0 14.0 0.00 0.23 0.05 77 1016.4
20260904102703 60 287 5.0 16.0 0.00 0.23 0.05 77 1016.3
20260904101803 60 286 5.0 15.0 0.00 0.23 0.05 78 1016.0
20260904100903 60 273 5.0 11.0 0.00 0.23 0.05 80 1016.0
20260904100003 60 265 5.0 11.0 0.00 0.23 0.05 82 1016.1
20260904095403 60 269 3.0 8.0 0.00 0.23 0.05 83 1016.0
20260904094503 60 255 3.0 9.0 0.00 0.23 0.05 85 1015.9
20260904093603 60 251 4.0 7.0 0.00 0.23 0.05 85 1015.9
20260904092703 59 250 4.0 7.0 0.00 0.23 0.05 86 1015.7
20260904091803 59 249 3.0 8.0 0.00 0.23 0.05 86 1015.7
20260904090903 58 247 3.0 8.0 0.00 0.23 0.05 86 1015.6
20260904090003 58 248 3.0 9.0 0.00 0.23 0.05 87 1015.6
20260904085403 58 249 4.0 10.0 0.00 0.23 0.05 87 1015.5
20260904084503 58 253 4.0 10.0 0.00 0.23 0.05 87 1015.3
20260904083603 57 263 5.0 11.0 0.00 0.23 0.05 88 1015.0
20260904082703 57 263 4.0 10.0 0.00 0.23 0.05 88 1014.9
20260904081803 57 266 4.0 11.0 0.00 0.23 0.05 89 1014.7
20260904080903 57 265 4.0 11.0 0.00 0.23 0.05 89 1014.8
20260904080003 56 265 4.0 8.0 0.00 0.23 0.05 90 1014.6
20260904075403 56 260 4.0 11.0 0.00 0.23 0.05 90 1014.6
20260904074503 56 259 4.0 8.0 0.00 0.23 0.05 90 1014.5
20260904073603 56 258 5.0 11.0 0.00 0.23 0.05 90 1014.6
20260904072703 56 260 4.0 8.0 0.00 0.23 0.05 90 1014.4
20260904071803 56 261 3.0 9.0 0.00 0.23 0.05 91 1014.2
20260904070903 56 266 3.0 7.0 0.00 0.23 0.05 91 1014.0
20260904070003 55 272 4.0 9.0 0.00 0.23 0.05 91 1014.1
20260904065403 55 271 4.0 10.0 0.00 0.23 0.05 91 1013.9
20260904064503 55 268 4.0 10.0 0.00 0.23 0.05 91 1013.8
20260904063603 55 270 4.0 10.0 0.00 0.23 0.05 92 1014.0
20260904062703 55 272 4.0 11.0 0.00 0.23 0.05 92 1013.7
20260904061803 55 273 4.0 10.0 0.00 0.23 0.05 92 1013.7
20260904060903 55 266 4.0 9.0 0.00 0.23 0.05 92 1013.5
20260904060003 55 265 4.0 9.0 0.00 0.23 0.05 92 1013.4
20260904055403 55 262 4.0 8.0 0.00 0.23 0.05 92 1013.3
20260904054503 55 271 5.0 12.0 0.00 0.23 0.05 92 1013.1
20260904053603 56 266 5.0 10.0 0.00 0.23 0.05 92 1013.3
20260904052703 56 261 4.0 10.0 0.00 0.23 0.05 92 1013.2
20260904051803 56 256 4.0 8.0 0.00 0.23 0.05 92 1013.0
20260904050903 56 260 3.0 8.0 0.00 0.23 0.05 92 1013.1
20260904050003 56 267 4.0 11.0 0.00 0.23 0.05 92 1012.9
20260904045403 57 267 3.0 11.0 0.00 0.23 0.05 92 1012.8
20260904044503 57 269 3.0 6.0 0.00 0.23 0.05 92 1013.0
20260904043603 57 265 3.0 7.0 0.00 0.23 0.05 92 1012.8
20260904042703 57 267 3.0 6.0 0.00 0.23 0.05 92 1012.6
20260904041803 58 273 3.0 7.0 0.00 0.23 0.05 92 1012.7
20260904040903 58 269 3.0 9.0 0.00 0.23 0.05 92 1012.4
20260904040003 58 263 4.0 10.0 0.00 0.23 0.05 92 1012.3
20260904035403 58 265 3.0 10.0 0.00 0.23 0.05 92 1012.1
20260904034503 58 270 3.0 8.0 0.00 0.23 0.05 92 1012.3
20260904033603 59 266 2.0 6.0 0.00 0.23 0.05 92 1012.4
20260904032703 59 271 2.0 7.0 0.00 0.23 0.05 92 1012.3
20260904031803 59 268 3.0 8.0 0.00 0.23 0.05 92 1012.2
20260904030903 59 259 3.0 7.0 0.00 0.23 0.05 93 1012.1
20260904030003 59 262 4.0 9.0 0.00 0.23 0.05 93 1011.9
20260904025403 59 258 4.0 9.0 0.00 0.23 0.05 93 1012.2
20260904024503 59 259 4.0 9.0 0.01 0.23 0.05 93 1012.0
20260904023603 59 255 4.0 9.0 0.02 0.23 0.05 93 1011.9
20260904022703 59 251 4.0 9.0 0.02 0.23 0.05 92 1012.1
20260904021803 59 254 4.0 9.0 0.02 0.23 0.05 93 1012.2
20260904020903 59 256 4.0 8.0 0.03 0.23 0.05 92 1012.0
20260904020003 59 259 4.0 8.0 0.04 0.23 0.05 92 1012.0
20260904015403 59 258 4.0 10.0 0.04 0.23 0.05 92 1012.1
20260904014503 59 262 3.0 7.0 0.03 0.22 0.04 92 1012.1
20260904013603 59 259 4.0 10.0 0.02 0.21 0.03 92 1012.0
20260904012703 59 260 3.0 7.0 0.02 0.21 0.03 92 1011.6
20260904011803 59 264 3.0 7.0 0.02 0.20 0.02 92 1011.5
20260904010903 59 262 4.0 8.0 0.02 0.20 0.02 92 1011.6
20260904010003 59 259 4.0 9.0 0.01 0.19 0.01 92 1011.8
20260904005403 59 255 4.0 9.0 0.01 0.19 0.01 92 1011.5
20260904004503 59 264 3.0 7.0 0.01 0.19 0.01 92 1011.6
20260904003603 59 264 3.0 6.0 0.01 0.19 0.01 92 1011.4
20260904002703 59 273 3.0 8.0 0.01 0.19 0.01 92 1011.7
20260904001803 59 267 3.0 6.0 0.00 0.18 0.00 92 1011.5
20260904000903 59 264 2.0 6.0 0.00 0.18 0.00 92 1011.5
20260904000003 59 285 1.0 4.0 0.00 0.18 0.00 92 1011.4
20260903235403 59 288 1.0 3.0 0.00 0.18 0.00 92 1011.4
20260903234503 59 268 1.0 4.0 0.00 0.18 0.00 92 1011.2
20260903233603 59 265 1.0 2.0 0.00 0.18 0.00 92 1011.1
20260903232703 59 265 1.0 3.0 0.00 0.18 0.00 92 1011.0
20260903231803 59 262 1.0 3.0 0.00 0.18 0.00 92 1011.0
20260903230903 59 256 1.0 3.0 0.00 0.18 0.00 92 1010.7
20260903230003 59 279 1.0 4.0 0.00 0.18 0.00 92 1010.6
20260903225403 59 339 1.0 6.0 0.00 0.18 0.18 92 1010.6
20260903224503 59 335 5.0 8.0 0.00 0.18 0.18 92 1010.6
20260903223603 59 337 6.0 11.0 0.00 0.18 0.18 91 1010.5
20260903222703 59 335 7.0 10.0 0.02 0.18 0.18 91 1010.2
20260903221803 59 339 8.0 13.0 0.02 0.18 0.18 91 1010.2
20260903220903 59 338 10.0 13.0 0.02 0.18 0.18 91 1010.2
20260903220003 60 339 10.0 15.0 0.02 0.18 0.18 91 1010.1
20260903215403 60 337 11.0 15.0 0.02 0.18 0.18 91 1010.2
20260903214503 61 337 11.0 16.0 0.02 0.18 0.18 90 1009.8
20260903213603 62 336 9.0 16.0 0.02 0.18 0.18 90 1009.8
20260903212703 66 256 7.0 17.0 0.00 0.16 0.16 91 1009.8
20260903211803 66 244 10.0 22.0 0.01 0.16 0.16 91 1009.3
20260903210903 66 241 11.0 25.0 0.02 0.16 0.16 91 1009.3
20260903210003 66 242 9.0 20.0 0.02 0.16 0.16 92 1009.4
20260903205403 66 241 9.0 20.0 0.03 0.16 0.16 91 1009.5
20260903204503 66 240 10.0 21.0 0.06 0.16 0.16 91 1009.5
20260903203603 66 235 12.0 25.0 0.08 0.16 0.16 91 1009.4
20260903202703 65 235 10.0 23.0 0.09 0.16 0.16 91 1009.4
20260903201803 65 227 8.0 21.0 0.10 0.15 0.15 91 1009.6
20260903200903 65 207 7.0 20.0 0.10 0.14 0.14 91 1009.5
20260903200003 64 189 7.0 15.0 0.12 0.14 0.14 91 1009.7
20260903195403 64 182 7.0 13.0 0.12 0.13 0.13 91 1009.9
20260903194503 63 172 8.0 12.0 0.09 0.10 0.10 90 1010.1
20260903193603 63 171 7.0 11.0 0.08 0.08 0.08 90 1010.4
20260903192703 63 172 7.0 10.0 0.06 0.06 0.06 89 1010.7
20260903191803 63 178 6.0 11.0 0.05 0.05 0.05 88 1011.0
20260903190903 63 180 5.0 8.0 0.04 0.04 0.04 88 1011.1
20260903190003 63 188 4.0 10.0 0.02 0.02 0.02 86 1011.4
20260903185403 64 205 3.0 6.0 0.01 0.01 0.01 86 1011.6
20260903184503 64 207 3.0 6.0 0.01 0.01 0.01 85 1011.9
20260903183603 64 181 5.0 9.0 0.00 0.00 0.00 84 1012.0
20260903182703 64 195 5.0 9.0 0.00 0.00 0.00 83 1012.3